Wind_Speed
8 6 5 4 5 7 7 8 9 9 9 9 9 8 8 8 8 8 7 7 6 6 6 7 7 7 7 6 6 7 7 7 6 6 6 7 8 8 7 7 6 6 4 5 6 5 6 7 8 12 14 14 15 16 15 15 15 15 15 17 18 19 18 17 17 16 15 15 15 15 15 15 14 13 14 15 16 17 16 16 14 13 14 13 13
10 7 6 5 4 5 6 7 8 9 9 9 9 8 8 8 8 8 7 6 6 6 6 7 7 7 7 7 7 7 7 7 6 6 6 6 7 8 7 6 7 6 5 5 6 5 5 6 8 11 14 14 13 14 15 15 15 15 15 17 18 19 19 18 18 17 16 15 15 15 15 15 15 14 14 15 15 16 16 16 14 13 13 13 13
11 9 7 6 5 5 6 7 8 8 9 9 8 7 7 8 8 8 7 7 6 5 6 7 7 8 8 7 7 7 7 7 6 6 6 6 6 8 8 7 7 6 5 5 5 4 4 4 6 9 11 13 14 14 15 16 16 16 15 16 18 19 20 19 19 17 16 16 15 15 14 14 16 15 15 16 15 16 17 17 15 14 14 13 13
12 10 8 7 6 5 6 6 7 8 8 9 8 7 7 7 7 7 7 6 6 6 6 7 8 8 8 8 7 8 8 7 7 7 7 7 6 7 7 7 8 7 6 5 4 3 3 3 5 6 8 11 13 13 15 16 16 16 16 17 17 19 20 20 19 18 17 16 16 15 14 13 15 16 16 16 16 16 18 18 16 15 14 14 13
12 10 9 8 7 6 6 6 6 7 8 8 8 7 7 7 7 7 7 6 6 6 6 7 8 8 8 8 8 8 8 8 8 8 7 7 7 7 6 6 7 8 8 7 5 4 3 3 3 4 5 8 9 11 13 14 15 15 16 17 17 18 20 20 19 18 17 17 16 16 15 14 14 16 16 17 17 17 18 19 18 16 15 15 14
12 11 9 8 7 7 6 6 7 7 7 7 7 8 8 8 7 7 7 6 6 6 7 8 8 9 9 9 9 9 9 9 9 9 8 8 7 7 6 6 6 7 7 7 6 5 4 3 2 3 4 6 7 9 10 12 14 15 16 17 18 18 19 20 20 19 17 17 17 17 17 15 14 15 16 17 18 18 18 20 19 18 16 15 15
13 11 9 8 7 7 7 7 8 7 7 7 7 8 9 9 9 7 7 7 6 6 8 9 9 9 9 9 9 9 9 10 10 9 9 8 7 7 7 6 6 6 6 7 7 6 5 4 4 3 3 4 5 7 9 11 13 14 16 18 17 16 17 18 20 20 19 17 18 17 17 17 15 15 16 18 18 18 19 20 20 19 17 16 16
14 12 10 9 8 7 7 7 7 7 7 8 8 9 9 10 10 9 7 6 6 7 8 9 9 9 9 9 8 8 9 9 9 9 9 8 8 7 7 7 7 7 7 7 7 6 5 5 4 3 3 2 3 5 8 10 12 13 15 17 17 17 18 17 18 19 20 18 18 18 18 19 17 15 16 18 19 19 19 20 21 20 18 18 17
14 13 12 11 10 8 8 7 7 7 7 8 8 9 9 9 10 9 8 6 6 8 8 8 8 8 9 8 8 8 9 9 8 8 8 8 8 8 8 8 8 8 7 7 7 6 5 5 4 4 4 3 1 3 6 8 9 10 13 15 18 19 19 18 18 19 21 20 19 19 19 19 18 17 17 18 19 20 19 20 21 21 19 19 18
13 13 13 12 11 10 9 8 7 7 7 7 8 9 10 10 10 10 8 7 7 8 8 8 7 8 8 9 9 9 9 9 9 8 9 9 9 8 8 8 7 7 7 7 6 6 5 5 5 4 4 3 2 2 3 4 6 8 10 13 17 18 19 19 19 19 20 20 19 19 20 20 18 18 18 18 19 21 20 20 21 21 20 20 19
12 13 14 14 13 11 10 9 8 8 8 8 8 9 10 10 11 10 9 8 7 7 8 7 7 7 8 8 9 9 9 9 9 9 9 10 9 9 8 8 7 7 6 6 6 6 5 5 4 4 3 3 3 2 2 3 3 5 7 10 13 15 17 19 19 19 20 20 20 20 21 21 20 19 19 18 19 20 21 21 21 22 21 21 20
12 12 13 14 14 12 10 10 9 9 9 9 9 9 9 9 10 10 9 8 8 8 7 6 5 6 6 7 8 8 9 8 8 8 9 9 9 9 9 8 7 7 6 6 5 5 5 4 4 4 3 3 3 2 1 2 3 3 5 7 9 12 15 18 20 20 20 21 21 21 21 22 22 21 20 19 19 20 21 21 22 22 22 22 21
11 11 12 13 13 13 11 10 10 9 9 9 9 9 8 8 7 8 9 9 10 9 7 4 3 4 5 6 7 7 7 8 8 8 8 8 9 9 9 9 8 7 6 6 5 5 4 4 4 4 4 3 3 2 1 1 1 2 3 5 7 9 12 15 19 21 21 22 23 23 22 22 23 22 21 21 20 20 21 21 22 22 23 23 22
9 11 10 11 12 12 12 11 11 10 9 9 9 9 9 8 6 6 7 9 10 11 9 5 2 2 2 4 5 5 6 7 7 7 7 8 8 8 8 8 8 7 6 6 6 6 5 4 4 4 3 3 3 1 1 2 1 1 2 3 5 7 9 12 16 19 22 24 24 23 23 23 23 24 23 22 21 21 21 22 22 22 23 23 23
9 10 9 9 10 11 11 12 11 11 11 11 11 11 11 10 8 6 5 7 8 10 11 8 5 3 1 1 2 2 4 5 6 6 7 7 7 8 7 7 7 7 6 6 6 6 5 5 4 4 3 3 3 3 2 2 1 1 1 2 3 5 7 10 12 15 20 24 25 24 24 24 24 24 25 25 24 22 22 23 23 22 23 23 23
7 9 9 8 8 9 9 10 10 11 11 11 12 13 12 12 10 9 7 6 7 9 11 11 11 7 3 0 0 1 2 4 3 4 4 5 6 7 7 7 7 6 6 6 6 5 5 5 4 4 3 3 3 3 3 3 2 2 1 1 2 3 5 7 9 12 16 20 24 25 25 25 25 25 26 27 27 26 24 24 24 23 23 24 24
6 7 7 7 6 7 9 9 9 11 11 11 12 12 12 12 12 11 10 8 7 7 8 11 12 11 8 4 1 1 3 4 2 2 2 3 5 6 6 6 6 5 5 5 5 5 4 4 3 3 2 2 3 3 3 3 3 3 3 2 2 2 4 5 7 10 12 16 21 25 27 27 26 26 26 27 29 29 27 25 24 24 24 24 25
6 5 5 6 5 6 8 8 9 11 11 11 11 11 11 12 12 11 11 9 8 7 7 8 9 10 10 8 6 5 4 5 4 1 2 2 3 5 6 7 5 4 4 4 4 4 3 2 2 2 1 1 2 3 3 3 3 3 3 3 2 1 1 3 5 7 10 13 17 22 27 27 27 27 27 27 28 29 30 29 27 25 25 25 26
6 6 5 4 4 5 6 7 9 10 9 9 11 11 10 11 11 11 10 10 9 9 8 7 7 8 8 7 7 6 6 5 4 3 1 2 3 4 6 7 5 4 4 4 4 3 3 2 2 2 1 1 2 2 2 2 3 4 4 4 3 2 1 2 3 4 7 10 13 17 23 27 28 28 27 27 28 28 30 31 30 28 27 27 26
5 6 5 5 4 5 5 6 8 9 8 8 8 9 9 8 8 9 9 9 9 9 9 8 7 7 6 6 5 5 5 6 5 5 4 2 3 4 6 7 5 4 5 5 5 4 3 3 3 3 2 2 2 1 1 1 2 2 3 5 5 4 2 2 2 3 4 6 9 12 17 22 27 29 28 29 29 29 30 30 31 31 31 29 27
5 5 5 5 4 4 4 5 6 7 7 7 6 6 6 6 7 7 7 7 7 8 8 8 8 7 6 6 5 4 4 5 6 5 4 3 3 4 6 7 5 5 6 5 5 5 5 3 3 4 4 4 3 2 1 1 0 1 1 3 4 4 4 4 3 3 3 4 6 8 11 16 22 26 29 30 30 29 30 30 31 33 33 31 30
4 4 4 4 4 3 3 4 4 4 4 4 3 4 4 4 4 4 4 5 5 5 6 6 6 7 7 7 7 6 5 5 6 6 5 4 5 4 6 7 5 5 8 7 5 4 4 4 4 5 5 5 4 3 2 1 1 1 1 1 3 4 4 4 4 4 4 4 5 6 8 11 15 21 25 28 30 30 31 31 31 32 33 34 33
4 4 4 4 4 3 3 3 3 2 2 2 2 2 2 2 2 2 2 3 3 3 4 5 5 6 6 6 7 7 7 6 6 7 7 5 6 5 6 8 7 6 7 7 6 3 3 4 5 5 5 6 5 4 3 2 3 3 2 2 3 3 3 4 4 5 5 5 5 5 6 8 10 14 18 23 28 30 32 33 32 32 34 35 35
4 5 4 4 4 3 3 3 3 3 3 3 2 2 2 2 2 2 2 2 2 2 3 4 4 5 5 5 5 5 6 5 5 7 7 7 7 5 6 8 7 7 7 5 6 5 2 3 5 5 6 7 6 5 4 3 5 5 4 4 5 5 4 4 4 5 5 5 6 6 6 7 8 10 13 17 22 26 30 33 33 32 34 35 37
4 4 4 3 3 3 3 3 3 4 4 4 3 3 3 3 3 3 3 4 3 3 4 4 4 4 4 4 4 4 5 4 3 5 6 7 7 6 8 9 7 7 7 6 5 4 3 3 3 3 5 7 5 4 5 5 5 6 6 6 9 9 7 6 6 6 6 6 7 7 7 8 8 9 10 12 16 20 26 31 34 35 35 36 37
3 3 3 3 3 3 4 4 4 5 5 5 5 5 5 5 5 5 5 5 5 5 5 6 6 6 6 6 6 5 5 5 4 5 5 7 8 7 8 9 8 7 7 7 6 4 4 5 4 3 4 5 4 4 5 5 5 7 8 8 10 12 11 10 9 8 8 8 8 8 9 9 9 10 10 11 12 14 19 26 32 35 36 36 37
2 2 2 3 3 3 4 4 5 6 6 7 7 7 7 7 7 7 7 7 7 7 7 7 7 7 7 8 8 7 7 7 6 6 7 6 7 7 7 7 7 7 6 7 8 6 5 5 4 2 2 4 5 5 6 7 8 10 11 11 11 13 13 13 13 12 11 11 10 10 10 11 11 11 11 11 11 12 14 18 25 31 34 34 35
0 1 2 3 3 4 4 5 5 6 7 8 8 8 9 9 9 10 10 9 9 9 9 9 8 9 9 9 9 9 8 8 7 8 8 8 8 7 7 7 6 6 6 6 6 6 6 7 6 2 2 4 5 6 8 10 11 11 13 13 13 13 14 14 15 15 15 14 13 13 12 13 13 13 13 12 11 12 12 13 16 22 28 31 32
1 2 2 3 4 4 4 5 5 6 7 7 7 8 8 8 9 10 10 10 10 10 9 9 9 9 9 8 9 9 9 8 7 7 8 9 8 8 9 9 8 6 6 6 6 7 9 8 8 6 6 6 6 7 9 10 11 11 13 14 13 13 14 15 16 17 18 17 16 15 15 15 15 15 15 13 12 12 12 12 12 14 19 24 28
2 2 3 4 4 4 5 5 5 6 6 7 7 7 8 8 8 8 9 9 9 9 8 8 9 9 9 9 8 8 8 7 7 7 7 7 7 8 8 9 10 9 8 7 7 10 12 10 9 10 10 10 10 11 11 12 12 11 11 13 13 13 14 16 18 19 20 20 18 16 16 16 16 16 15 15 14 13 12 12 12 12 13 16 21
3 3 3 4 4 4 4 5 6 7 7 8 8 8 8 8 8 8 9 9 9 8 8 8 8 8 9 9 9 8 8 7 7 6 6 6 6 7 8 7 8 9 10 9 7 11 14 13 13 13 13 13 13 14 14 14 13 11 11 13 14 14 16 17 18 17 17 18 19 18 17 17 16 16 16 15 15 14 13 13 13 13 13 14 16
3 3 3 3 3 4 5 6 7 7 8 9 9 9 9 9 9 9 10 10 9 9 9 9 9 9 9 10 9 8 8 8 7 6 5 5 6 7 8 7 6 6 9 10 8 10 15 16 15 16 15 14 15 16 16 16 15 14 13 14 15 15 16 16 16 16 16 16 17 19 18 18 17 16 15 15 15 15 15 14 14 13 13 13 14
2 1 2 3 4 5 6 7 7 8 9 9 9 9 9 9 9 10 10 10 11 10 10 11 11 11 10 10 10 10 10 10 9 8 7 7 7 8 8 7 7 6 7 10 9 10 13 15 16 16 15 15 15 16 16 17 16 15 15 16 16 15 15 16 16 17 17 15 15 18 19 19 19 17 16 16 16 16 16 15 14 13 12 12 13
2 3 3 4 5 5 6 7 8 8 9 9 10 10 10 10 10 10 11 11 11 11 11 11 12 12 11 11 12 12 12 11 11 11 10 10 9 9 9 7 7 7 6 8 10 10 12 14 15 15 14 14 15 15 15 15 17 18 18 18 18 17 17 17 17 18 17 14 15 18 20 21 21 20 18 18 17 17 17 17 17 15 13 12 12
4 5 5 5 5 6 7 8 8 8 9 9 10 10 10 11 11 11 11 12 12 12 11 12 12 12 13 13 13 14 14 13 13 13 12 12 11 10 10 9 9 8 7 6 9 11 12 14 14 14 13 12 13 14 14 14 16 17 18 19 19 18 18 18 18 18 17 17 18 20 21 21 22 21 20 19 19 19 18 18 19 18 16 14 13
6 6 6 6 6 7 8 8 8 9 9 9 10 11 11 11 11 11 11 11 12 11 11 12 12 12 13 13 14 15 14 14 14 14 14 14 13 11 12 11 10 10 9 8 9 10 12 14 14 15 14 12 12 13 13 13 13 14 14 17 18 18 17 17 18 19 18 19 21 23 22 22 23 23 22 22 21 20 20 20 20 20 19 17 16
7 7 7 7 7 7 8 8 8 9 10 10 10 10 11 10 10 11 11 11 11 11 11 11 11 12 12 13 13 14 14 14 14 14 14 14 13 12 12 12 11 11 11 10 9 10 11 13 14 15 14 13 13 12 11 11 12 12 12 13 16 17 17 16 17 18 18 19 20 23 25 24 24 24 24 24 23 22 21 20 20 21 21 20 19
8 8 7 7 7 8 8 8 9 9 10 10 10 10 10 10 10 10 10 10 10 11 11 11 11 12 12 12 13 14 14 14 14 14 14 13 12 12 12 12 12 12 12 11 11 11 11 11 12 13 13 13 13 12 12 12 13 13 12 12 13 13 13 16 18 18 18 18 18 19 21 23 24 25 25 25 25 25 24 22 22 22 22 23 22
9 9 9 9 9 9 9 9 10 10 10 10 10 10 9 10 10 10 10 10 10 10 11 11 11 12 12 13 13 13 14 14 14 14 14 13 12 11 12 12 12 12 12 11 11 11 11 11 11 11 11 12 12 12 12 13 13 12 11 12 13 13 12 14 17 18 18 18 17 18 18 18 19 21 24 25 26 27 27 25 25 24 24 24 24
10 10 10 10 10 10 10 10 10 11 11 10 10 9 9 9 10 10 10 9 9 10 10 11 11 11 12 13 14 14 14 16 16 16 16 16 13 11 12 12 12 12 12 12 12 12 11 11 12 11 11 12 12 12 13 13 13 12 13 13 15 15 14 13 14 15 17 17 17 18 19 18 18 19 21 24 25 27 28 28 27 27 27 27 26
11 11 11 11 11 11 11 11 12 13 13 13 12 10 9 9 9 9 10 9 9 9 10 10 11 11 11 13 14 16 17 18 19 20 20 20 17 14 13 13 12 12 13 12 12 12 12 12 12 12 12 12 13 14 14 14 14 14 15 15 15 16 16 16 15 14 14 15 15 14 16 18 19 19 19 22 24 25 27 29 29 29 28 28 28
12 12 12 12 11 11 11 12 12 14 15 15 14 12 11 10 9 9 9 9 9 9 10 10 10 11 11 12 14 17 17 16 18 20 21 22 21 19 17 16 14 13 13 14 13 13 13 12 12 12 12 11 13 14 13 14 15 15 16 17 16 17 16 16 15 13 12 12 12 13 14 15 16 17 18 20 21 21 23 27 29 30 29 29 29
13 12 12 12 12 11 12 12 13 14 15 15 15 14 14 13 10 9 9 9 9 9 10 9 10 10 11 11 12 14 16 16 16 17 18 19 19 18 17 17 16 15 13 12 13 14 13 13 13 13 13 13 14 14 15 16 16 17 17 17 17 17 16 14 14 13 11 10 12 15 15 14 13 15 18 21 20 19 20 21 24 27 27 28 29
14 13 13 12 12 12 13 14 14 15 17 16 16 15 14 14 12 10 9 9 9 9 9 9 9 9 9 10 11 12 16 18 17 16 16 17 17 16 14 12 13 16 16 13 13 13 14 14 14 14 14 14 15 15 16 17 18 18 18 18 18 18 18 15 14 15 15 14 15 16 17 14 12 14 18 20 20 21 20 18 20 23 24 25 26
14 14 13 13 13 13 13 14 14 15 17 16 15 15 14 14 13 10 9 9 9 9 9 9 9 9 9 9 10 11 14 17 19 19 18 16 15 16 14 10 8 11 15 15 14 13 13 14 15 15 15 16 15 15 16 17 17 18 18 17 18 18 18 18 18 19 18 17 16 17 17 15 12 13 16 17 17 19 21 19 18 18 21 24 24
15 15 14 14 13 13 13 14 14 15 16 15 14 13 13 14 13 10 9 9 9 9 8 8 8 9 9 8 9 10 12 15 19 21 19 17 15 15 15 12 9 9 11 13 13 12 12 13 13 14 14 14 13 13 14 15 15 17 17 18 19 19 19 20 20 20 18 16 15 15 15 15 14 13 14 16 17 18 20 20 19 17 18 21 23
15 15 14 13 13 13 13 14 14 15 15 13 12 11 11 12 11 9 8 8 8 7 7 7 7 8 8 8 9 10 11 14 17 19 19 17 15 14 14 13 12 11 10 12 13 12 12 12 11 11 11 11 11 11 12 14 14 15 17 18 17 17 19 20 19 18 16 15 15 14 14 16 17 16 14 15 17 20 20 20 20 21 21 21 21
14 14 13 13 12 11 12 13 14 14 14 12 10 9 9 8 7 6 6 6 7 6 6 6 7 7 8 8 8 9 11 13 15 16 17 16 13 14 14 13 13 12 11 13 15 15 15 13 12 12 11 11 11 10 11 14 15 16 17 17 15 15 17 18 17 17 17 17 16 14 13 16 18 19 17 16 16 19 20 20 19 20 23 24 22
14 13 13 13 12 11 11 12 12 12 12 10 8 7 7 6 4 3 3 5 5 5 5 5 6 8 9 8 9 9 9 11 13 14 16 14 12 14 14 13 14 13 12 15 15 15 16 15 13 14 13 14 14 10 10 15 17 16 15 15 15 16 16 14 13 16 19 18 15 16 16 16 17 19 19 18 18 18 19 20 19 16 17 21 24
14 14 15 13 11 11 10 10 10 11 10 8 7 6 5 6 4 3 2 4 4 3 4 5 5 7 8 9 9 9 8 10 11 12 14 14 12 13 14 13 14 13 14 16 15 15 16 15 13 13 12 13 13 10 10 14 16 15 13 13 14 16 15 13 13 16 19 17 14 17 18 18 18 19 18 19 20 19 16 15 16 15 13 14 19
15 15 14 13 11 10 10 10 9 9 9 7 6 5 5 5 4 4 4 4 3 2 2 3 3 4 5 6 9 9 7 8 9 10 12 13 11 11 13 13 13 13 15 16 15 15 17 15 14 13 12 12 12 11 10 12 13 12 12 12 13 14 14 14 15 14 13 14 15 18 18 18 18 18 17 15 15 16 16 14 14 15 16 15 15
Wind_Direction
36 36 36 34 29 25 28 32 32 29 25 25 27 27 30 31 29 29 28 28 37 44 47 49 48 51 56 61 70 77 83 86 86 81 74 69 66 66 73 82 88 86 96 118 132 143 143 152 167 176 179 184 185 181 180 177 170 175 181 178 177 176 175 175 176 180 177 173 171 167 166 169 170 178 185 183 178 175 170 168 165 159 157 159 164
37 39 40 38 39 35 32 32 31 29 26 24 22 22 26 28 25 24 23 26 38 47 50 52 50 50 53 59 69 75 80 85 84 81 75 70 66 62 67 74 79 83 89 107 124 132 134 147 168 183 186 188 192 188 184 183 178 177 182 184 182 180 180 181 182 186 184 180 177 175 174 174 174 178 184 186 183 180 175 170 170 165 162 164 166
37 39 43 43 44 42 37 30 27 27 27 26 22 20 22 24 23 21 19 22 37 51 55 56 54 52 53 56 65 72 77 81 81 80 75 76 69 60 63 63 65 76 85 98 112 120 128 145 167 183 191 193 194 193 191 189 186 183 182 186 188 187 187 187 187 190 192 188 183 181 180 178 178 178 184 188 186 184 180 175 174 171 168 168 166
37 38 44 47 46 42 39 31 26 26 22 22 23 22 23 23 20 18 17 23 38 52 57 58 59 55 54 56 61 68 74 79 80 80 77 78 77 69 68 63 58 66 79 86 88 96 120 148 170 183 192 196 195 196 195 192 192 189 184 187 191 192 194 194 192 193 196 195 191 187 185 184 182 182 187 190 190 187 184 179 178 178 174 171 168
38 40 45 48 47 43 39 32 25 24 20 20 26 27 27 23 19 20 20 26 42 54 60 61 63 63 59 59 60 62 68 75 77 77 78 76 75 72 72 72 65 68 79 84 85 83 92 129 167 182 192 197 195 197 199 197 198 196 190 192 195 196 197 199 197 196 198 199 197 191 189 193 191 187 189 191 192 190 188 184 181 182 179 174 170
38 38 41 44 45 40 35 31 25 25 27 25 30 32 31 26 20 21 23 27 41 54 64 64 63 66 66 65 64 64 67 71 74 75 76 74 72 69 68 72 72 77 85 83 83 84 80 94 125 158 189 198 196 201 204 201 204 204 199 199 200 199 198 200 200 199 200 201 201 196 192 200 202 193 191 193 193 191 191 189 185 186 184 179 173
37 34 35 35 35 36 32 29 26 32 40 37 36 36 33 28 20 18 26 33 41 56 69 68 65 67 68 70 69 70 71 72 75 77 78 77 76 72 67 67 71 79 85 77 74 80 81 81 84 105 163 192 197 202 206 205 206 209 208 206 206 204 200 200 203 203 202 204 204 200 197 205 208 199 195 195 194 193 195 193 189 190 189 185 179
38 35 32 32 31 36 35 31 31 41 49 45 44 40 34 29 23 17 24 37 47 61 72 71 70 70 69 71 71 71 73 73 74 76 79 80 78 74 70 69 69 71 74 71 71 73 73 79 81 79 101 138 184 195 206 212 210 213 215 212 210 210 206 202 204 205 206 208 206 202 202 209 210 205 198 196 196 196 197 196 193 193 194 191 185
38 34 33 35 36 41 42 39 39 48 53 50 47 41 34 30 27 22 21 34 54 63 70 72 72 70 67 66 65 67 68 69 69 71 74 74 72 72 71 69 68 69 70 70 72 68 59 71 88 85 88 100 124 174 197 211 215 216 218 215 211 210 209 204 204 206 209 210 208 204 205 210 213 210 201 196 198 198 198 199 197 197 198 197 192
36 34 35 38 42 48 50 48 48 54 54 50 46 41 37 33 31 29 23 29 48 59 65 70 71 69 65 60 59 61 62 63 64 65 67 66 63 62 64 64 64 66 69 70 73 69 61 63 72 80 87 101 111 131 173 195 213 216 215 216 215 212 211 208 207 209 210 211 210 209 208 210 214 213 205 196 199 199 199 202 202 200 201 201 198
36 35 37 40 47 53 56 54 54 56 51 46 44 40 39 36 35 35 32 31 39 51 59 67 76 74 68 62 59 60 59 59 59 60 62 63 62 59 58 58 58 61 65 69 74 74 77 77 78 84 83 89 111 126 157 179 204 213 212 216 217 217 216 213 212 212 213 213 212 213 213 213 214 214 208 200 200 201 201 203 205 205 204 203 202
40 37 39 42 48 54 56 56 57 57 52 45 41 39 37 36 38 39 40 39 37 41 47 54 72 81 82 75 67 63 61 57 54 53 53 54 55 56 54 52 52 55 57 63 73 78 83 88 92 97 93 76 76 90 129 176 205 213 216 219 217 220 220 219 217 214 215 216 215 215 217 216 214 214 212 206 204 203 203 204 206 208 208 206 205
41 39 41 44 49 53 53 53 55 54 52 45 40 38 34 34 40 45 47 46 38 34 31 31 62 86 94 96 88 75 65 57 50 47 46 47 47 46 46 44 43 44 48 56 66 74 80 86 91 95 100 91 68 55 55 106 187 216 219 221 219 221 223 224 221 216 215 218 218 217 218 218 216 215 216 213 209 207 206 206 207 209 210 209 208
46 43 43 45 48 50 51 51 52 51 49 47 42 40 37 34 39 50 56 53 43 34 26 22 59 77 82 109 108 96 85 69 51 43 40 40 41 40 38 35 34 34 35 42 52 58 63 73 81 85 92 98 102 90 48 72 100 273 248 226 224 225 224 225 224 220 219 220 220 219 219 221 220 218 218 216 213 211 208 209 210 211 212 212 211
53 51 49 47 46 50 51 50 50 49 48 47 44 42 40 39 38 42 53 62 54 38 29 23 22 20 347 104 80 101 112 83 55 47 39 36 37 33 31 28 24 24 25 27 32 39 46 55 64 71 78 87 102 111 94 73 347 290 269 245 236 235 230 228 228 227 225 223 222 221 221 223 223 221 220 219 219 216 213 213 212 211 213 214 213
59 58 55 49 46 48 50 46 44 47 47 44 41 40 39 40 41 39 35 49 57 44 35 29 22 12 347 43 16 283 80 57 37 55 45 36 43 37 27 21 15 16 21 21 18 19 29 40 47 52 60 75 84 86 86 65 26 25 18 308 251 244 243 238 234 233 231 226 224 224 223 224 225 223 221 222 223 222 218 216 215 212 212 215 215
64 60 58 53 47 47 50 47 44 47 48 45 43 40 39 38 40 42 36 33 45 49 43 37 32 25 19 20 343 335 38 8 330 90 80 36 35 32 22 11 2 7 11 12 10 3 6 19 26 34 46 71 79 72 72 64 54 54 33 349 291 253 252 253 247 240 238 234 229 227 225 225 226 225 223 223 223 224 221 217 217 216 213 213 215
65 62 58 54 46 45 51 51 47 50 49 48 48 43 41 41 40 43 41 33 37 45 45 43 41 38 37 37 30 22 14 342 322 26 121 101 32 13 10 359 342 339 345 349 357 349 341 344 348 360 21 83 91 86 82 73 71 71 49 16 344 288 267 272 262 251 246 241 236 230 227 227 228 228 226 225 224 223 222 220 219 220 217 215 214
61 62 60 55 46 43 49 51 50 51 48 48 50 48 46 44 40 41 41 38 40 43 41 41 44 43 43 45 42 35 21 7 354 344 351 98 54 23 11 0 345 333 326 315 318 323 318 310 298 293 276 146 123 110 103 77 62 60 47 35 25 21 4 293 276 265 256 247 243 236 229 227 230 231 229 229 227 223 223 224 224 223 220 219 218
53 58 61 59 53 48 48 52 54 53 51 48 47 46 44 40 37 38 39 38 39 41 40 39 41 42 41 42 44 47 42 34 23 1 346 359 44 35 13 8 12 8 344 311 298 293 286 293 288 273 255 209 184 166 135 102 61 56 34 30 28 20 10 336 302 279 270 259 250 244 236 231 232 233 232 232 231 227 225 226 228 228 223 219 219
48 51 57 57 53 53 49 51 55 57 54 47 39 37 35 33 34 34 35 36 34 37 40 39 40 38 35 36 35 37 53 47 31 21 11 358 12 22 9 7 19 22 7 338 304 280 266 267 274 271 256 231 220 222 219 264 17 52 9 20 23 13 9 357 341 313 287 275 260 254 248 241 238 237 235 234 234 232 229 228 228 231 229 223 220
54 51 55 57 54 55 56 55 57 59 53 39 31 31 29 26 26 22 22 29 32 33 35 34 36 34 29 32 34 32 37 37 27 20 18 8 5 9 13 8 2 17 14 358 335 283 262 262 261 264 257 244 236 233 234 262 281 273 291 358 8 5 4 359 354 341 318 299 280 274 268 255 247 243 239 236 236 234 231 230 229 230 230 228 225
68 65 64 62 55 51 52 55 50 46 40 27 23 22 17 5 354 353 355 2 8 16 22 23 24 28 29 28 30 33 29 24 21 15 13 10 3 2 16 8 352 6 18 5 352 330 282 266 259 261 261 255 244 239 255 263 259 274 289 313 325 337 343 343 346 339 331 322 303 292 288 275 262 254 247 241 238 233 229 229 228 228 229 229 228
81 78 73 61 53 47 38 36 29 22 21 17 12 358 346 328 315 309 307 312 315 329 353 2 3 6 14 16 13 16 18 16 9 8 9 2 349 348 3 360 350 358 8 5 357 353 334 290 270 266 262 257 247 242 266 262 252 274 289 294 300 301 304 312 320 321 321 322 314 305 298 290 281 271 260 252 245 237 232 231 230 230 231 229 228
82 80 72 52 43 35 18 11 4 356 351 349 346 332 317 314 314 308 306 309 301 297 304 310 313 318 332 339 330 335 350 349 334 345 355 345 337 346 351 346 343 345 346 352 3 10 353 325 300 279 264 256 253 255 267 269 271 283 284 283 288 287 285 286 291 298 301 306 312 311 306 299 293 285 276 267 258 246 238 235 232 231 231 230 229
80 66 47 23 13 5 350 343 337 332 329 327 326 319 305 306 315 311 311 315 304 294 298 300 297 295 301 303 303 311 313 309 308 314 324 329 332 341 339 334 334 331 333 341 343 357 5 341 327 321 292 264 258 264 268 275 283 283 281 284 284 281 280 280 279 282 286 292 299 303 305 305 300 293 288 280 270 260 248 240 232 229 229 230 231
70 35 1 343 334 329 323 321 320 318 317 315 313 312 304 301 307 306 305 309 301 294 295 294 293 294 296 294 294 297 295 297 298 293 299 306 312 321 323 324 327 323 330 333 325 333 351 337 323 329 309 282 272 274 280 284 282 278 282 286 283 278 278 279 277 275 277 281 287 293 297 300 302 299 294 288 280 270 261 250 237 229 227 230 233
348 311 311 308 303 304 305 308 309 310 314 313 309 311 310 306 310 311 310 312 308 302 299 296 297 298 298 295 292 294 296 294 287 282 288 291 289 294 297 300 310 317 320 318 317 322 323 322 323 316 302 301 294 289 287 286 282 278 283 284 280 280 281 281 279 276 274 273 276 283 288 291 294 297 295 291 286 277 268 263 252 237 231 231 233
277 288 298 301 300 304 312 317 321 325 328 330 327 325 325 322 323 325 323 323 321 316 312 308 310 310 307 306 303 304 310 309 302 296 294 292 291 288 283 287 295 296 300 306 309 311 311 313 308 299 301 299 289 286 285 285 283 280 283 284 280 281 281 280 279 277 275 272 269 274 282 287 287 288 290 290 286 281 271 264 258 249 242 236 234
297 308 314 322 324 324 335 347 356 0 0 0 358 353 351 348 346 346 344 342 338 334 333 328 327 326 322 320 317 315 320 322 320 314 303 299 298 292 285 284 287 286 291 299 295 297 305 306 294 291 294 288 282 284 285 285 283 278 280 282 279 279 278 278 281 281 278 272 266 268 275 283 286 282 282 283 282 278 272 265 257 252 249 243 240
313 323 328 336 345 353 7 20 25 25 24 21 17 14 11 9 5 5 4 0 355 354 356 353 347 342 337 334 333 333 332 329 328 322 313 312 304 296 293 288 286 286 289 292 288 291 301 303 297 294 293 289 284 281 280 282 284 281 278 278 277 275 274 277 282 285 284 275 265 265 270 278 283 281 276 276 277 275 272 268 262 255 252 249 248
320 330 345 1 22 38 42 43 40 36 33 30 26 24 23 22 19 16 15 11 10 9 8 9 7 2 354 350 353 355 348 341 338 333 326 323 314 310 314 310 301 294 292 292 286 286 294 298 296 296 300 301 292 282 279 279 279 277 272 272 275 272 271 275 279 282 286 281 267 262 266 272 278 280 275 269 271 273 272 269 265 259 257 258 257
328 8 54 65 66 66 61 56 52 47 42 38 34 32 31 32 30 26 22 21 22 21 17 16 18 15 9 5 8 8 359 353 350 349 353 353 344 338 340 336 324 321 312 303 297 295 301 303 300 298 302 305 297 290 289 287 285 283 275 271 272 271 268 271 277 278 278 279 273 266 264 268 273 277 274 267 265 268 269 268 267 264 261 262 264
101 101 97 91 82 77 73 66 62 56 51 47 42 41 39 38 38 34 31 29 30 30 27 24 23 23 21 19 19 15 11 11 11 11 11 7 0 356 355 349 338 337 332 314 308 308 309 310 307 305 306 306 301 299 301 300 299 297 289 280 275 272 271 270 274 278 276 276 277 273 267 265 268 273 271 266 262 264 266 264 263 264 264 265 268
121 114 105 100 91 83 79 74 70 64 59 56 50 48 45 42 42 41 38 37 37 36 34 30 28 29 28 28 26 23 21 24 23 21 18 10 4 2 358 352 343 337 332 319 312 311 311 311 312 315 317 315 307 304 306 307 305 302 298 294 288 281 278 275 272 273 275 275 273 271 269 263 262 266 268 265 260 259 262 262 260 260 261 264 268
127 120 109 103 95 88 83 77 74 70 64 61 57 54 52 47 46 44 43 43 42 40 39 35 33 32 32 32 31 28 25 25 24 20 16 11 6 4 0 356 349 340 334 324 312 309 310 313 316 320 323 323 318 313 312 314 312 307 305 305 304 299 293 288 281 278 278 276 270 267 269 265 259 260 263 264 260 255 256 259 260 258 257 261 266
130 123 114 106 99 93 88 81 77 73 67 64 60 58 56 53 52 51 48 47 45 43 42 40 37 35 36 36 34 30 27 24 21 16 11 7 4 3 1 355 349 344 337 328 322 316 311 312 317 321 323 326 326 325 324 323 319 316 312 309 310 310 309 305 297 289 285 281 275 271 270 268 263 260 260 261 259 255 252 253 256 256 257 258 261
132 126 119 111 104 97 91 85 80 75 70 67 62 59 57 55 55 55 53 51 48 47 44 42 40 38 38 38 35 32 29 24 19 13 8 4 1 358 356 350 345 341 333 329 328 322 316 315 316 318 323 328 328 327 331 332 325 320 317 312 311 313 317 316 310 303 296 289 284 281 277 273 268 263 260 259 259 257 253 249 250 253 254 257 258
136 131 123 115 107 100 94 87 81 76 72 68 64 60 58 58 58 56 55 52 50 48 46 44 42 41 41 40 37 34 32 27 21 15 9 4 359 357 356 349 343 338 333 331 330 324 321 321 319 321 326 326 325 328 333 333 325 322 322 320 317 317 317 315 311 310 307 297 287 282 281 281 278 270 264 260 257 256 255 251 249 249 250 253 255
137 132 125 118 110 103 97 91 85 79 74 69 65 61 58 59 60 58 54 52 50 48 47 45 43 43 45 45 42 41 40 35 30 27 21 15 6 359 356 351 345 342 338 335 334 333 333 330 328 331 331 328 330 335 336 335 332 333 332 324 318 316 316 312 305 304 308 308 299 285 278 280 282 280 277 270 260 254 253 253 250 250 250 250 251
135 131 126 120 115 109 102 95 89 83 77 72 70 69 66 61 59 58 55 51 49 48 46 46 45 45 50 52 50 51 50 42 38 38 34 30 25 14 4 356 348 345 344 342 342 342 340 336 336 339 335 335 342 341 339 340 338 334 330 324 318 316 315 312 305 298 300 308 310 300 289 283 281 283 285 278 268 261 257 255 252 250 250 250 250
136 133 129 123 119 114 108 100 91 85 81 77 73 71 73 71 62 55 55 52 49 49 48 47 49 50 52 55 52 49 46 39 35 35 31 30 30 27 24 19 8 357 350 346 347 347 343 340 340 341 338 341 347 345 342 343 340 335 331 326 321 319 316 312 310 307 302 303 307 305 301 295 287 284 282 275 271 270 266 259 256 254 251 251 251
139 137 133 128 123 117 111 103 96 92 88 84 78 72 72 76 70 58 55 55 52 51 51 50 52 52 51 52 48 42 37 31 25 24 21 19 19 19 22 26 25 20 11 358 352 349 346 343 340 341 344 344 345 347 347 347 344 339 335 328 324 324 323 316 314 314 310 310 309 304 300 297 289 284 280 273 271 275 273 264 262 263 260 255 252
142 139 135 130 125 121 115 107 102 100 96 90 83 76 72 75 76 66 57 59 57 54 55 53 52 51 49 48 45 38 34 28 20 15 11 9 10 6 4 11 23 27 25 20 10 356 345 341 339 342 348 345 342 348 351 347 341 335 331 329 328 327 324 319 315 312 314 317 312 304 301 299 292 287 285 278 273 274 276 274 271 272 272 267 259
144 140 137 133 129 126 119 113 108 106 101 94 87 81 76 78 81 73 63 65 64 59 58 56 53 51 47 45 45 39 32 26 20 14 6 360 2 3 358 354 7 23 25 26 22 7 349 341 340 344 349 348 345 346 349 345 336 330 327 327 329 327 323 321 316 311 312 312 305 300 300 300 294 290 289 285 278 275 276 278 276 274 277 280 276
145 142 139 137 133 129 123 119 116 112 108 101 95 89 83 83 85 77 67 68 67 64 63 61 59 56 50 45 43 39 32 25 21 17 7 357 356 0 360 356 355 7 20 23 19 10 357 348 345 344 345 347 344 339 342 345 336 326 322 321 321 321 319 316 312 309 308 309 308 303 298 299 300 296 290 290 292 290 287 282 272 263 268 278 282
146 144 143 139 134 131 128 125 122 120 116 109 104 99 91 87 87 80 71 69 67 67 68 66 65 60 52 47 43 37 32 25 20 15 8 360 356 358 360 358 353 354 6 9 4 4 1 353 347 344 340 341 338 331 338 345 338 327 320 314 312 314 314 312 312 312 314 317 320 314 300 302 310 308 299 297 298 299 300 293 277 262 259 266 275
147 144 139 133 131 133 134 132 128 126 124 117 111 106 95 88 85 79 75 70 65 67 72 73 72 63 51 44 38 34 31 23 16 12 10 4 357 356 357 355 352 351 355 355 353 353 354 349 344 343 340 340 342 337 333 337 339 336 325 316 317 322 319 317 317 318 319 320 328 335 324 318 323 318 308 304 303 301 302 302 294 274 261 259 264
141 137 130 130 138 145 144 141 134 130 130 125 115 106 92 80 68 58 71 69 62 68 78 80 77 70 61 53 43 36 30 21 12 9 11 8 357 354 354 350 347 347 348 348 345 344 345 343 339 339 337 339 343 340 326 330 342 347 334 324 329 330 323 319 317 318 318 317 333 352 339 323 327 324 313 308 307 302 298 302 308 299 273 262 261
134 133 135 143 155 158 151 145 138 133 135 137 125 105 85 73 54 14 31 56 53 68 92 95 89 78 67 54 47 43 34 21 11 8 10 8 358 352 351 345 342 344 344 341 339 338 338 335 334 335 333 334 338 334 326 332 345 353 343 332 332 327 320 318 315 315 313 309 330 351 338 321 327 328 321 317 312 303 296 297 308 314 301 279 268
135 138 148 161 166 159 151 145 139 135 138 146 137 105 80 72 51 3 0 28 30 39 98 112 106 92 73 51 42 39 34 21 9 5 6 5 360 351 347 343 340 340 339 335 333 334 333 330 330 331 329 331 334 331 332 337 345 351 346 339 334 328 322 318 315 315 311 306 326 343 334 322 324 324 324 325 316 308 307 302 299 305 305 298 286
Height
795 794 793 793 793 792 792 791 791 791 790 789 788 788 787 786 785 785 784 783 783 782 782 782 782 781 781 780 780 780 780 780 780 780 779 779 778 778 777 778 778 778 778 779 779 779 780 781 782 782 783 784 785 786 787 787 788 790 792 793 794 796 797 799 800 801 802 803 804 805 806 807 809 810 811 812 813 814 815 816 817 818 819 820 821
796 794 794 794 793 793 792 792 792 792 791 790 789 789 788 787 786 786 785 784 783 783 783 783 783 782 782 781 781 781 781 781 781 781 780 780 780 779 779 779 779 779 779 779 779 780 780 781 783 783 783 784 785 786 787 787 789 790 792 793 795 796 797 798 800 801 802 803 804 805 806 807 808 809 810 812 813 814 815 816 817 818 819 820 821
797 796 795 794 793 793 793 793 793 792 792 791 791 790 789 789 788 787 786 785 784 784 784 784 783 783 783 782 782 782 782 782 782 782 782 782 781 781 780 780 780 779 779 780 780 780 781 782 783 784 784 785 786 787 787 788 790 791 792 793 795 796 797 798 799 801 802 803 804 805 806 807 808 809 810 811 812 814 815 816 817 819 820 821 821
798 797 796 795 794 794 794 794 794 793 793 792 791 791 790 789 788 787 787 785 785 785 784 784 784 784 784 783 783 782 782 782 783 783 783 783 783 782 782 781 781 780 780 781 781 781 781 782 783 784 784 785 786 787 788 789 791 792 792 793 794 796 797 798 799 800 802 803 804 805 806 806 807 809 809 811 812 813 815 816 817 819 820 821 821
799 798 797 796 796 795 795 795 795 794 794 793 792 791 791 790 789 788 787 786 786 785 785 785 785 785 785 784 784 783 783 783 784 784 784 784 783 783 783 783 782 782 782 782 783 783 782 782 783 784 785 786 787 788 788 789 790 791 792 793 794 795 797 798 799 800 802 803 804 805 806 806 807 809 809 810 812 813 814 816 817 818 819 820 821
800 799 798 797 797 796 796 796 796 795 795 794 793 792 791 791 790 788 788 787 786 786 786 786 786 786 786 785 785 785 784 784 784 785 785 785 784 784 784 784 783 783 783 784 784 784 783 783 783 784 785 785 787 787 788 789 790 791 792 793 794 796 797 798 799 800 801 803 803 804 805 806 807 808 809 810 811 813 814 815 817 818 819 820 821
801 801 799 799 798 797 797 796 796 795 795 794 794 793 792 792 790 789 788 788 787 787 787 787 787 787 787 786 786 786 786 785 786 786 786 786 786 785 785 785 784 785 784 785 785 785 784 784 784 785 785 786 786 787 788 788 789 790 791 792 794 796 797 798 799 800 801 802 803 804 805 806 807 808 809 810 811 812 814 815 816 817 819 819 820
802 801 800 799 799 798 798 797 796 796 796 795 795 794 793 793 792 790 789 789 788 788 787 788 788 788 788 788 788 787 787 787 787 787 787 787 787 786 786 786 785 785 786 785 785 785 786 785 785 785 786 786 787 787 787 787 788 789 790 792 794 796 796 797 798 799 801 802 802 803 804 805 806 807 808 810 811 812 813 815 816 817 818 819 820
803 802 801 800 799 799 799 798 797 797 796 796 795 795 794 794 793 792 790 790 789 789 789 789 789 789 789 789 789 788 788 788 788 788 788 788 788 787 787 787 786 786 786 786 786 787 787 787 787 786 786 787 787 788 787 787 788 789 790 792 793 794 795 796 797 798 800 801 802 803 804 804 805 806 807 809 810 811 813 814 815 816 818 819 820
804 803 802 801 800 800 800 799 798 798 797 797 796 796 795 795 794 793 792 791 790 790 790 790 790 790 790 790 790 789 789 789 789 789 789 789 788 788 788 787 787 787 787 787 788 788 788 788 787 787 787 787 787 788 788 788 789 789 790 791 792 794 795 795 796 797 799 800 801 802 803 804 805 806 807 808 809 810 812 813 814 815 817 818 819
805 804 803 802 801 801 801 800 800 799 799 798 798 797 797 796 795 794 793 792 791 791 791 791 791 791 791 791 791 790 790 790 790 790 789 790 789 789 789 788 788 788 788 788 788 789 789 789 788 788 788 788 788 788 788 789 789 790 790 791 792 793 793 794 795 797 798 799 800 801 802 803 804 805 806 807 808 809 810 812 813 814 816 817 818
806 805 804 804 803 802 802 801 801 801 800 800 799 799 798 797 797 796 794 793 793 793 792 792 792 792 792 792 792 791 791 791 790 790 790 790 790 790 790 790 789 789 789 789 789 789 789 789 789 789 789 789 788 788 788 789 789 789 790 790 791 791 792 793 794 796 796 797 799 800 801 802 803 804 805 806 807 808 809 811 812 813 814 815 817
808 807 806 805 805 804 803 803 802 802 802 801 801 800 799 799 798 797 796 795 795 794 794 793 793 793 793 793 793 793 792 792 792 791 791 791 790 790 790 790 790 790 790 790 790 790 789 790 790 789 790 789 789 788 788 789 789 789 789 790 790 791 791 792 793 794 795 795 797 798 799 800 801 802 803 804 806 807 808 810 811 812 813 814 815
809 809 808 807 806 806 805 804 804 803 803 802 802 801 801 800 799 798 798 797 796 796 795 794 793 792 792 792 792 793 793 793 793 793 792 792 791 791 791 791 791 791 791 790 790 790 790 790 790 790 790 790 790 789 789 789 789 788 789 789 789 790 790 791 791 792 793 794 795 797 798 799 800 801 802 803 805 806 807 809 810 811 811 813 814
811 810 809 809 808 807 807 806 806 805 804 804 803 802 802 801 800 799 798 798 798 798 797 795 794 792 791 791 791 791 792 792 793 794 793 793 792 792 792 792 792 791 791 791 790 790 790 790 790 790 790 789 789 789 789 789 788 788 788 788 788 789 789 790 790 791 791 792 794 795 797 798 799 800 801 802 803 804 805 807 808 810 810 811 813
811 811 810 810 809 809 809 808 807 807 806 806 805 804 803 802 801 801 799 798 798 799 798 797 795 794 791 790 790 790 791 792 792 793 794 793 793 793 793 793 792 792 792 791 791 790 790 790 790 790 790 789 789 789 789 789 788 788 788 788 788 788 788 788 789 790 790 791 792 794 795 796 797 798 799 800 802 803 804 805 807 808 809 810 811
812 812 811 811 810 810 810 809 809 809 808 807 807 806 805 804 803 802 801 800 800 800 799 799 798 796 794 793 792 791 793 793 792 793 794 794 794 794 794 794 793 792 792 792 792 791 791 791 790 790 790 790 790 790 789 789 789 789 788 788 788 787 787 788 788 789 789 789 790 792 793 793 794 796 797 798 799 801 802 803 805 806 807 808 809
812 812 812 812 811 811 811 810 810 810 809 809 808 807 807 806 805 804 804 803 802 801 800 800 800 799 798 797 797 796 796 794 793 793 792 793 794 795 794 794 793 793 793 792 792 792 791 791 790 790 790 790 790 790 790 790 789 789 789 788 787 787 787 787 787 788 788 788 788 789 790 791 792 793 794 796 797 799 800 801 803 804 805 806 807
812 812 812 812 812 812 812 811 811 811 810 810 810 809 808 808 807 806 805 805 804 802 802 801 801 801 800 800 800 800 799 797 796 794 793 792 794 794 795 794 794 793 793 793 792 792 791 791 791 790 790 790 790 790 790 790 789 789 788 788 787 787 787 787 787 787 787 787 787 787 788 789 790 791 792 794 795 796 798 799 801 802 802 804 805
813 812 812 812 812 812 812 812 812 811 811 811 811 810 810 809 809 808 807 806 805 805 804 803 802 802 802 801 801 800 800 799 798 797 795 794 793 794 794 794 793 793 793 793 792 792 791 791 790 790 790 790 790 790 790 790 789 789 789 788 788 787 787 786 786 786 785 785 785 785 786 787 787 788 790 791 792 793 795 796 798 799 800 801 803
813 813 812 812 812 812 812 812 812 812 811 811 811 811 810 810 809 809 808 808 807 806 805 805 804 803 803 802 801 800 800 800 799 798 797 796 794 794 794 793 793 793 793 792 791 791 791 790 790 790 789 789 789 789 789 789 789 789 788 788 788 787 787 786 786 785 785 784 784 785 785 785 785 786 787 788 789 791 792 793 795 797 798 799 800
813 813 813 812 812 812 812 812 812 811 811 811 811 811 810 810 810 809 809 808 808 807 807 806 806 805 804 803 802 801 800 799 799 799 797 797 795 794 793 793 792 791 792 791 790 790 790 790 790 789 789 788 789 789 789 789 789 788 788 787 787 787 786 786 785 785 784 784 784 784 783 783 783 784 784 785 787 788 789 790 792 794 795 796 797
813 813 813 813 812 812 812 812 811 811 811 810 810 810 810 809 809 809 808 808 808 808 807 807 806 805 805 804 803 802 801 800 800 800 798 797 796 793 792 793 791 790 791 791 790 789 789 789 789 788 788 788 788 788 788 788 788 787 787 787 787 786 786 786 785 785 784 784 783 783 783 782 782 782 782 783 783 784 785 787 788 790 792 793 794
813 813 813 813 813 812 812 812 811 811 811 810 810 809 809 809 808 808 808 807 807 807 807 806 806 805 804 804 804 803 802 802 802 801 799 799 797 794 792 792 791 789 789 790 789 789 788 788 787 787 787 787 787 787 788 788 787 787 787 786 786 786 785 785 784 784 784 783 783 782 782 781 781 781 780 780 781 781 782 783 785 787 788 789 790
814 813 813 813 813 813 812 812 811 811 810 810 809 809 808 808 807 807 807 807 806 806 806 805 805 805 804 803 803 802 801 802 802 801 800 800 798 795 794 793 791 789 787 786 786 787 787 787 786 786 786 786 786 787 787 787 786 786 786 786 785 785 785 784 784 783 783 782 782 781 781 780 780 779 779 779 778 778 779 780 782 783 784 785 786
814 814 813 813 813 813 812 812 811 811 810 810 809 808 807 807 806 806 805 805 805 804 804 804 804 803 803 802 801 801 801 801 801 800 800 799 797 797 796 794 791 788 786 784 783 783 784 786 785 786 786 786 786 786 786 786 786 785 785 785 784 784 783 783 782 782 782 781 781 780 780 779 779 778 777 777 777 777 777 776 777 779 780 781 782
814 814 814 814 813 813 812 812 811 811 810 810 809 808 807 806 805 805 804 804 803 803 803 802 802 802 801 801 800 800 800 799 799 799 798 798 797 797 797 796 793 789 785 784 783 781 782 784 784 784 786 786 786 786 785 785 785 784 784 784 783 782 782 782 781 781 780 780 779 779 778 778 777 777 776 776 775 775 774 773 773 775 777 778 780
814 814 814 813 813 812 812 811 811 810 810 809 808 807 807 806 805 804 803 803 802 802 801 801 801 801 800 800 799 798 798 798 798 798 798 797 797 797 797 796 795 792 789 786 783 781 781 781 781 782 783 784 785 785 785 784 784 783 783 783 782 781 780 780 779 779 779 778 778 777 777 776 776 775 775 774 773 773 772 772 772 773 774 776 778
813 813 813 813 812 812 811 811 810 809 809 808 808 807 806 806 805 804 803 802 802 801 801 800 800 800 800 799 798 798 797 797 797 797 797 797 796 796 796 795 795 794 792 789 786 782 781 781 781 781 782 783 784 784 783 783 782 782 782 781 780 779 778 778 777 777 777 776 776 775 775 775 774 774 773 773 772 771 771 770 770 771 772 773 775
813 813 812 812 812 811 811 810 809 809 808 808 807 806 806 805 804 804 803 802 801 800 800 799 799 799 798 798 798 798 797 797 797 796 796 796 796 795 795 794 794 793 792 791 788 784 782 782 782 781 781 782 782 782 781 781 780 780 780 779 778 778 777 776 775 775 774 774 774 773 773 772 772 772 772 771 771 770 770 769 769 770 770 771 771
812 812 812 811 811 811 810 810 809 809 808 808 807 806 806 805 804 804 803 802 801 800 800 799 798 798 798 798 797 797 797 796 796 796 796 796 795 795 794 793 794 793 792 792 790 786 784 783 782 781 781 781 781 780 779 779 778 777 778 778 777 776 775 774 773 772 772 771 771 771 771 771 770 770 769 769 769 768 768 768 767 768 768 768 769
812 812 811 811 811 810 810 810 809 809 809 808 807 807 806 806 805 804 803 802 801 801 800 799 799 798 798 797 797 797 796 796 795 795 795 795 794 794 793 793 793 793 792 792 790 787 785 784 782 781 781 780 779 778 777 776 776 776 776 775 774 773 773 772 770 770 769 769 769 769 769 768 768 768 767 767 767 767 766 766 766 766 766 766 766
811 811 811 811 811 811 810 810 810 809 809 808 808 807 807 806 806 805 804 803 802 801 801 800 799 799 798 798 797 797 796 796 795 795 794 794 794 794 794 793 793 793 792 791 790 787 785 784 782 781 780 779 778 776 775 774 774 774 773 773 772 771 771 770 768 767 767 766 766 766 766 766 766 766 765 765 765 765 764 764 764 764 764 764 764
811 811 811 811 811 811 810 810 810 810 809 809 808 808 807 807 806 806 805 804 803 802 802 801 800 800 799 799 798 798 797 796 796 795 795 794 794 794 793 793 792 792 792 791 789 787 784 783 781 780 779 778 776 775 774 773 773 772 772 771 770 769 768 768 766 765 764 764 764 764 764 764 764 763 763 763 763 763 763 762 762 762 762 762 762
811 811 811 811 811 811 811 810 810 810 810 809 809 809 808 808 807 807 806 805 805 804 803 803 802 801 801 800 799 799 798 798 797 797 796 795 794 794 793 793 792 791 791 790 789 787 784 782 780 779 778 777 776 775 774 773 772 771 770 769 768 767 766 765 765 764 763 762 762 761 761 761 761 761 761 761 760 761 760 760 760 760 760 760 760
811 811 811 811 811 811 811 811 811 811 810 810 810 810 809 809 808 808 807 807 806 806 805 804 803 803 802 802 801 801 800 799 799 798 798 797 796 795 794 793 792 791 790 790 788 787 784 782 779 778 777 776 775 774 773 772 771 770 769 767 766 765 764 763 763 762 762 761 760 759 759 758 758 758 758 758 758 758 758 758 758 758 758 758 758
810 811 811 811 811 811 811 811 811 811 811 811 811 811 810 810 810 809 809 808 808 807 807 806 805 804 804 804 803 803 802 801 801 800 800 799 797 796 795 794 793 792 790 789 788 786 785 782 780 778 776 775 774 773 772 771 770 769 768 767 766 764 762 762 761 761 760 759 758 757 756 756 755 755 755 755 755 755 755 755 755 755 755 756 756
810 811 811 811 811 811 812 812 812 812 812 812 812 812 812 811 811 810 810 809 809 808 808 807 807 806 806 805 805 804 804 803 803 802 801 800 799 797 796 795 794 792 791 789 787 786 784 782 780 778 776 775 773 772 772 771 770 769 767 766 765 764 762 761 760 758 757 756 755 755 754 753 753 752 752 752 752 752 752 752 752 752 753 753 753
810 810 810 811 811 812 812 812 813 813 812 813 813 813 812 812 812 811 811 811 810 810 809 809 808 808 807 807 806 806 806 805 804 804 803 801 800 799 797 796 795 793 791 789 787 785 783 781 779 777 776 775 773 772 771 771 769 768 767 766 764 763 762 761 759 757 756 754 752 752 751 751 751 750 749 749 749 748 748 749 749 749 749 750 750
809 810 810 811 811 812 813 813 813 813 813 813 813 813 813 813 813 812 812 812 811 811 810 810 810 809 809 808 808 807 807 806 805 805 803 802 801 800 799 797 795 794 791 789 787 785 783 781 779 778 776 775 773 772 771 770 769 767 767 766 764 762 760 759 758 756 754 752 751 750 749 748 748 748 747 746 745 745 745 745 745 746 746 746 747
809 809 810 811 811 812 813 813 813 813 813 813 813 813 814 814 814 813 813 813 812 812 811 811 811 811 810 810 809 809 808 807 806 805 804 803 802 800 799 798 796 795 792 790 788 786 784 782 780 779 777 775 774 774 773 771 770 769 767 766 764 761 760 757 756 754 753 751 750 748 747 747 746 746 745 745 743 742 742 742 742 742 742 743 744
808 809 810 810 811 812 813 813 814 813 813 814 814 814 814 814 814 814 814 814 813 813 812 812 812 811 811 811 811 810 809 809 808 806 805 804 802 801 800 798 797 796 794 792 790 788 786 784 782 780 778 777 776 775 774 773 772 770 768 766 764 761 759 756 753 752 751 750 748 747 746 745 744 743 743 742 741 740 740 739 738 738 739 740 740
807 808 809 810 811 812 813 813 814 814 814 815 814 814 814 814 814 815 815 814 814 813 813 812 812 812 812 812 811 811 810 810 809 807 806 805 803 802 800 799 798 797 795 794 792 791 788 786 784 782 780 779 777 776 775 773 772 770 768 766 763 761 759 756 752 750 749 749 747 745 744 743 743 741 739 739 738 738 738 737 736 736 736 737 737
807 808 809 810 811 812 813 813 814 814 815 815 815 815 815 815 815 815 815 815 814 814 814 813 813 813 812 812 812 812 811 810 810 808 807 806 804 802 800 799 798 797 796 795 794 793 791 788 786 784 782 781 779 777 776 775 773 772 769 767 764 762 759 757 754 751 749 748 747 744 741 740 740 739 737 736 736 735 735 735 735 735 735 734 734
806 808 809 810 811 812 813 813 814 815 815 816 816 816 816 815 815 815 816 815 815 815 814 814 814 814 813 813 813 813 812 811 811 809 808 806 804 803 801 799 797 796 796 795 794 793 792 790 788 786 784 783 782 780 779 777 775 773 770 767 765 762 760 757 755 752 749 748 746 743 740 738 737 737 735 734 734 733 733 733 733 733 733 733 732
806 808 809 811 811 812 813 814 815 815 816 816 817 817 816 816 815 815 816 816 815 815 815 815 815 814 814 814 813 813 813 812 811 810 809 807 805 803 802 800 798 796 795 795 794 793 793 791 790 788 786 785 784 782 780 779 777 774 771 768 766 763 761 758 755 752 749 747 745 743 740 737 736 735 734 732 731 730 729 730 730 731 730 730 730
806 808 810 811 812 813 813 814 815 815 816 817 817 817 817 816 816 816 816 816 816 816 816 815 815 815 815 815 814 814 814 813 812 811 810 808 806 804 802 801 799 797 796 795 794 793 792 792 790 789 788 786 785 783 781 779 777 775 772 769 766 764 761 757 753 751 748 747 745 744 741 738 736 735 732 731 729 727 727 726 726 727 727 727 727
806 808 811 812 814 815 815 815 815 816 816 817 818 818 818 817 816 816 816 816 816 816 816 816 816 816 815 815 815 814 814 814 813 812 810 809 807 805 803 801 800 798 796 795 793 792 791 791 790 789 787 786 784 782 780 779 777 774 771 768 766 763 760 756 753 750 748 746 745 744 742 739 737 735 732 730 728 726 725 724 723 723 723 723 723
807 809 811 813 815 816 816 817 816 816 817 817 818 819 818 818 817 817 816 816 816 816 816 816 816 816 816 816 815 815 815 814 813 812 811 809 808 806 804 802 801 799 797 795 793 791 790 789 788 787 786 785 783 781 780 778 776 774 771 768 765 763 760 757 753 750 748 746 745 744 742 739 736 735 732 729 728 726 723 722 721 720 720 720 720
807 809 811 813 816 816 817 817 817 817 817 818 818 819 819 818 818 817 816 816 816 816 816 817 817 817 816 816 815 815 815 814 813 812 811 810 808 807 805 803 801 799 798 796 793 791 790 788 788 786 785 784 783 781 779 778 775 773 772 769 767 764 761 758 755 752 748 746 745 744 741 738 736 735 732 729 726 724 722 721 719 718 718 717 717
807 809 812 814 816 816 817 818 818 818 818 818 819 819 819 819 819 817 817 816 816 816 815 816 817 817 817 816 815 815 815 814 813 812 811 810 809 808 806 804 802 800 798 796 793 791 790 788 787 786 784 783 782 780 779 777 775 774 772 770 768 766 763 759 756 753 749 745 744 744 742 739 736 735 733 731 726 722 720 720 718 717 716 715 715